Torna al catalogo

STARLINK-32568

AttivoComunicazioniVLEO
NORAD 62128·PAYLOAD·🇺🇸 United States

Lanciato Nov 27, 2024 da Cape Canaveral Space Force Station

Loading…

Prossimi Passaggi (prossime 24 ore)

TLE

AggiornatoSource: CelesTrak SupGP

Epoca: Sep 14, 2026, 21:23 UTC

1 62128C 24222Q   26257.89145833 -.00056232  00000+0 -20368-2 0  2571
2 62128  43.0015 147.8353 0001346 269.5692  68.9490 15.27604491    14

Traccia STARLINK-32568 in tempo reale con AllMySat

Download on the App Store